MST,Max TemperatureF,Mean TemperatureF,Min TemperatureF,Max Dew PointF,MeanDew PointF,Min DewpointF,Max Humidity, Mean Humidity, Min Humidity, Max Sea Level PressureIn, Mean Sea Level PressureIn, Min Sea Level PressureIn, Max VisibilityMiles, Mean VisibilityMiles, Min VisibilityMiles, Max Wind SpeedMPH, Mean Wind SpeedMPH, Max Gust SpeedMPH,PrecipitationIn, CloudCover, Events, WindDirDegrees
2011-11-1,82,68,53,25,21,16,30,19,8,29.93,29.89,29.81,10,10,10,14,7,21,0.00,0,,244
2011-11-2,75,63,51,23,18,10,32,20,8,30.09,30.02,29.92,10,10,10,13,9,16,0.00,0,,289
2011-11-3,73,58,42,21,17,11,29,21,14,30.14,30.03,29.91,10,10,10,15,6,21,0.00,3,,115
2011-11-4,75,62,48,43,26,16,55,29,11,29.90,29.76,29.60,10,10,10,37,11,51,0.00,4,,182
2011-11-5,55,47,39,42,35,28,93,63,37,29.98,29.85,29.59,10,9,3,38,20,52,0.07,5,Rain,245
2011-11-6,60,50,39,34,32,31,79,54,35,29.97,29.93,29.88,10,10,10,15,3,23,0.00,3,,267
2011-11-7,51,44,36,39,30,23,87,57,33,30.13,29.96,29.86,10,10,7,25,10,33,0.05,4,Rain,246
2011-11-8,55,44,33,30,26,21,85,54,28,30.20,30.15,30.10,10,10,10,12,6,,0.00,1,,268
2011-11-9,60,48,37,30,22,16,70,40,19,30.26,30.21,30.16,10,10,10,15,5,22,0.00,0,,103
2011-11-10,62,50,37,19,16,12,45,28,14,30.34,30.22,30.12,10,10,10,17,11,24,0.00,4,,118
2011-11-11,63,52,42,20,17,15,34,25,17,30.09,30.01,29.94,10,10,10,9,5,,0.00,1,,117
2011-11-12,64,56,48,41,29,20,77,37,19,29.96,29.90,29.84,10,10,10,24,12,36,0.00,6,,183
2011-11-13,62,54,46,52,48,41,100,88,52,30.02,29.95,29.83,10,6,0,18,7,30,0.36,7,Fog-Rain,242
2011-11-14,62,52,42,48,45,37,100,91,42,30.02,29.96,29.82,10,5,0,14,4,17,0.00,6,Fog-Rain,245
2011-11-15,62,52,42,45,40,34,89,67,34,30.01,29.97,29.91,10,10,10,15,6,,0.00,1,,251
2011-11-16,62,52,41,41,36,30,87,59,30,30.14,30.09,30.01,10,10,10,9,5,,0.00,0,,244
2011-11-17,68,55,42,39,34,30,76,47,24,30.12,30.02,29.92,10,10,10,12,3,,0.00,0,,172
2011-11-18,69,58,46,34,29,21,62,37,17,29.95,29.88,29.82,10,10,10,13,4,20,0.00,3,,227
2011-11-19,64,55,46,31,26,21,50,33,19,29.91,29.87,29.81,10,10,10,15,6,24,0.00,3,,195
2011-11-20,66,56,46,40,36,29,68,48,30,30.05,29.93,29.87,10,10,10,15,5,23,0.00,0,,202
2011-11-21,57,50,44,43,37,30,76,61,36,30.19,30.02,29.89,10,10,10,17,7,24,0.00,4,Thunderstorm,272
2011-11-22,64,52,39,39,31,21,93,52,19,30.25,30.19,30.12,10,10,10,10,3,,0.00,0,,120
2011-11-23,71,56,41,28,24,21,53,32,15,30.17,30.08,29.99,10,10,10,15,7,24,0.00,2,,136
2011-11-24,71,60,48,45,35,22,76,44,21,30.04,29.95,29.86,10,10,9,21,8,28,0.00,3,Rain,168
2011-11-25,53,48,44,45,38,36,93,71,51,30.15,30.04,29.90,10,10,10,16,13,20,0.02,4,,278
2011-11-26,63,52,41,37,25,5,80,42,10,30.34,30.25,30.17,10,10,10,15,8,21,0.00,0,,144
2011-11-27,61,50,39,19,15,11,41,26,15,30.43,30.36,30.28,10,10,10,20,11,23,0.00,0,,141
2011-11-28,73,55,37,16,13,10,38,23,9,30.28,30.18,30.09,10,10,10,6,2,,0.00,1,,191
2011-11-29,73,59,45,19,17,13,32,21,11,30.14,30.08,30.01,10,10,10,7,2,,0.00,3,,206
2011-11-30,75,58,42,27,20,10,43,26,10,30.08,29.91,29.70,10,10,10,16,5,24,0.00,2,,183